Cleburne, TX

10:31 PM CST on February 07, 2016 (GMT -0600)
Cleburne

Weather History for KCPT - March, 2013

Change the Weather History Date:

Wednesday, March 20, 2013

  Actual Average (KDFW) Record (KDFW)
Temperature  
Mean Temperature 55 °F 59 °F  
Max Temperature 66 °F 69 °F 91 °F (1932)
Min Temperature 44 °F 48 °F 19 °F (1965)
Degree Days  
Heating Degree Days 10 7  
Month to date heating degree days 193  
Since 1 July heating degree days 2125  
Cooling Degree Days 0 1  
Month to date cooling degree days 18  
Year to date cooling degree days 25  
Growing Degree Days 5 (Base 50)    
Moisture  
Dew Point 31 °F    
Average Humidity 42    
Maximum Humidity 71    
Minimum Humidity 21    
Precipitation  
Precipitation 0.00 in 0.11 in 2.17 in (2012)
Month to date precipitation 2.27  
Year to date precipitation 7.06  
Snow  
Snow 0.00 in 0.00 in 1.20 in (2010)
Month to date snowfall 0.1  
Since 1 July snowfall 1.1  
Snow Depth -    
Sea Level Pressure  
Sea Level Pressure 30.20 in    
Wind  
Wind Speed 9 mph (NE)    
Max Wind Speed 14 mph    
Max Gust Speed 20 mph    
Visibility 10 miles    
Events      
T = Trace of Precipitation, MM = Missing Value Source: NWS Daily Summary

Daily Weather History Graph

Daily Weather History Graph

Search for Another Location

Airport or City:

Trip Planner

Search our weather history database for the weather conditions in past years. The results will help you decide how hot, cold, wet, or windy it might be!

Date:

Astronomy

Mar. 20, 2013 Rise Set
Actual Time 7:33 AM CDT 7:41 PM CDT
Civil Twilight 7:08 AM CDT 8:05 PM CDT
Nautical Twilight 6:40 AM CDT 8:34 PM CDT
Astronomical Twilight 6:11 AM CDT 9:03 PM CDT
Moon 1:35 PM CDT (3/20) 2:55 AM CDT (3/20)
Length of Visible Light 12h 57m
Length of Day
12h 08m
First Quarter, 59% of the Moon is Illuminated
Mar 20
First Quarter
Mar 27
Full
Apr 2
Last Quarter
Apr 10
New
Apr 18
First Quarter

Hourly Weather History & Observations

Time (CDT) Temp. Windchill Dew Point Humidity Pressure Visibility Wind Dir Wind Speed Gust Speed Precip Events Conditions
12:35 AM 57.2 °F - 32.0 °F 38% 30.13 in 10.0 mi NE 9.2 mph - N/A   Clear
12:55 AM 55.4 °F - 32.0 °F 41% 30.13 in 10.0 mi ENE 5.8 mph - N/A   Clear
1:15 AM 55.4 °F - 32.0 °F 41% 30.14 in 10.0 mi NNE 8.1 mph - N/A   Clear
1:35 AM 53.6 °F - 33.8 °F 47% 30.15 in 10.0 mi NNE 11.5 mph - N/A   Clear
1:55 AM 53.6 °F - 32.0 °F 44% 30.16 in 10.0 mi NNE 8.1 mph - N/A   Clear
2:15 AM 51.8 °F - 33.8 °F 50% 30.17 in 10.0 mi North 9.2 mph - N/A   Clear
2:35 AM 48.2 °F - 33.8 °F 58% 30.18 in 10.0 mi North 9.2 mph - N/A   Clear
2:55 AM 48.2 °F - 33.8 °F 58% 30.18 in 10.0 mi North 11.5 mph - N/A   Clear
3:15 AM 48.2 °F - 33.8 °F 58% 30.19 in 10.0 mi North 9.2 mph - N/A   Clear
3:35 AM 48.2 °F - 33.8 °F 58% 30.18 in 10.0 mi NNE 10.4 mph - N/A   Clear
3:55 AM 50.0 °F - 33.8 °F 54% 30.17 in 10.0 mi NNE 12.7 mph - N/A   Clear
4:15 AM 50.0 °F - 33.8 °F 54% 30.17 in 10.0 mi NNE 10.4 mph - N/A   Clear
4:35 AM 50.0 °F - 33.8 °F 54% 30.17 in 10.0 mi NNE 11.5 mph - N/A   Clear
4:55 AM 50.0 °F - 35.6 °F 58% 30.18 in 10.0 mi NNE 11.5 mph - N/A   Clear
5:15 AM 48.2 °F - 35.6 °F 62% 30.18 in 10.0 mi NNE 10.4 mph - N/A   Clear
5:55 AM 48.2 °F - 35.6 °F 62% 30.20 in 10.0 mi NNE 10.4 mph - N/A   Clear
6:15 AM 48.2 °F - 35.6 °F 62% 30.22 in 10.0 mi NNE 10.4 mph - N/A   Clear
6:35 AM 46.4 °F 42.9 °F 35.6 °F 66% 30.23 in 10.0 mi North 6.9 mph - N/A   Clear
6:55 AM 44.6 °F 40.7 °F 35.6 °F 71% 30.25 in 10.0 mi North 6.9 mph - N/A   Clear
7:15 AM 44.6 °F 40.7 °F 35.6 °F 71% 30.27 in 10.0 mi North 6.9 mph - N/A   Clear
7:35 AM 44.6 °F 40.7 °F 35.6 °F 71% 30.26 in 10.0 mi NNE 6.9 mph - N/A   Clear
7:55 AM 44.6 °F 40.2 °F 35.6 °F 71% 30.27 in 10.0 mi NNE 8.1 mph - N/A   Clear
8:15 AM 46.4 °F 42.9 °F 35.6 °F 66% 30.29 in 10.0 mi North 6.9 mph - N/A   Clear
8:35 AM 46.4 °F 42.4 °F 37.4 °F 71% 30.29 in 10.0 mi NNE 8.1 mph - N/A   Clear
8:55 AM 48.2 °F - 37.4 °F 66% 30.30 in 10.0 mi NNE 9.2 mph - N/A   Clear
9:15 AM 51.8 °F - 35.6 °F 54% 30.31 in 10.0 mi NNE 8.1 mph - N/A   Clear
9:35 AM 53.6 °F - 35.6 °F 51% 30.32 in 10.0 mi NE 8.1 mph - N/A   Clear
10:15 AM 55.4 °F - 35.6 °F 47% 30.32 in 10.0 mi ENE 9.2 mph - N/A   Clear
10:35 AM 57.2 °F - 35.6 °F 44% 30.32 in 10.0 mi NE 10.4 mph - N/A   Clear
10:55 AM 57.2 °F - 33.8 °F 41% 30.32 in 10.0 mi NE 10.4 mph - N/A   Clear
11:15 AM 59.0 °F - 33.8 °F 39% 30.32 in 10.0 mi ENE 10.4 mph - N/A   Clear
11:35 AM 60.8 °F - 35.6 °F 39% 30.32 in 10.0 mi NNE 8.1 mph - N/A   Clear
11:55 AM 62.6 °F - 33.8 °F 34% 30.32 in 10.0 mi ENE 8.1 mph - N/A   Clear
12:15 PM 62.6 °F - 30.2 °F 30% 30.31 in 10.0 mi ENE 11.5 mph 16.1 mph N/A   Clear
12:35 PM 62.6 °F - 28.4 °F 27% 30.31 in 10.0 mi NE 13.8 mph 17.3 mph N/A   Clear
12:55 PM 64.4 °F - 28.4 °F 26% 30.30 in 10.0 mi NE 10.4 mph - N/A   Clear
1:15 PM 64.4 °F - 26.6 °F 24% 30.29 in 10.0 mi NE 10.4 mph 17.3 mph N/A   Clear
1:35 PM 64.4 °F - 26.6 °F 24% 30.28 in 10.0 mi ENE 9.2 mph 19.6 mph N/A   Clear
1:55 PM 64.4 °F - 26.6 °F 24% 30.26 in 10.0 mi NNE 10.4 mph 18.4 mph N/A   Clear
2:15 PM 64.4 °F - 23.0 °F 21% 30.25 in 10.0 mi NE 12.7 mph 18.4 mph N/A   Clear
2:35 PM 66.2 °F - 26.6 °F 23% 30.23 in 10.0 mi NE 12.7 mph 17.3 mph N/A   Clear
2:55 PM 64.4 °F - 24.8 °F 22% 30.22 in 10.0 mi ENE 5.8 mph - N/A   Clear
3:15 PM 66.2 °F - 26.6 °F 23% 30.21 in 10.0 mi NNE 11.5 mph - N/A   Clear
3:35 PM 66.2 °F - 26.6 °F 23% 30.21 in 10.0 mi NE 8.1 mph - N/A   Clear
3:55 PM 64.4 °F - 26.6 °F 24% 30.20 in 10.0 mi North 5.8 mph - N/A   Clear
4:15 PM 66.2 °F - 26.6 °F 23% 30.18 in 10.0 mi NNE 9.2 mph - N/A   Clear
4:35 PM 66.2 °F - 26.6 °F 23% 30.17 in 10.0 mi Calm Calm - N/A   Clear
4:55 PM 66.2 °F - 26.6 °F 23% 30.17 in 10.0 mi North 4.6 mph - N/A   Clear
5:15 PM 66.2 °F - 28.4 °F 24% 30.16 in 10.0 mi NE 4.6 mph - N/A   Clear
5:35 PM 66.2 °F - 28.4 °F 24% 30.15 in 10.0 mi East 8.1 mph - N/A   Clear
6:15 PM 64.4 °F - 30.2 °F 28% 30.13 in 10.0 mi ENE 9.2 mph - N/A   Clear
6:35 PM 64.4 °F - 28.4 °F 26% 30.12 in 10.0 mi East 9.2 mph - N/A   Clear
6:55 PM 64.4 °F - 26.6 °F 24% 30.12 in 10.0 mi East 8.1 mph - N/A   Clear
7:15 PM 62.6 °F - 28.4 °F 27% 30.12 in 10.0 mi ENE 5.8 mph - N/A   Clear
7:35 PM 62.6 °F - 26.6 °F 26% 30.12 in 10.0 mi ENE 3.5 mph - N/A   Clear
7:55 PM 60.8 °F - 28.4 °F 29% 30.12 in 10.0 mi East 4.6 mph - N/A   Clear
8:15 PM 59.0 °F - 28.4 °F 31% 30.12 in 10.0 mi East 4.6 mph - N/A   Clear
8:35 PM 57.2 °F - 28.4 °F 33% 30.11 in 10.0 mi East 4.6 mph - N/A   Clear
9:15 PM 55.4 °F - 30.2 °F 38% 30.09 in 10.0 mi ESE 6.9 mph - N/A   Clear
9:35 PM 55.4 °F - 30.2 °F 38% 30.08 in 10.0 mi East 6.9 mph - N/A   Clear
9:55 PM 55.4 °F - 30.2 °F 38% 30.08 in 10.0 mi East 8.1 mph - N/A   Clear
10:15 PM 55.4 °F - 30.2 °F 38% 30.08 in 10.0 mi East 6.9 mph - N/A   Clear
10:35 PM 57.2 °F - 30.2 °F 36% 30.08 in 10.0 mi ESE 6.9 mph - N/A   Clear
10:55 PM 55.4 °F - 30.2 °F 38% 30.08 in 10.0 mi ESE 8.1 mph - N/A   Clear
11:15 PM 55.4 °F - 30.2 °F 38% 30.07 in 10.0 mi ESE 6.9 mph - N/A   Clear
11:55 PM 53.6 °F - 32.0 °F 44% 30.07 in 10.0 mi SE 5.8 mph - N/A   Clear